Location: Arroyo Grande
(40.2671°N, 4.2512°W)
Time: 06:27:39
(UTC+00:00)

Cosmos 1745 Rocket - Pass Details

Date: 03 February 2023
Orbit: 952 x 998 km, 83.0° (Epoch: 26 March)

Event Time Altitude Azimuth Distance (km) Brightness Sun altitude
Rises 19:15:36 0° 355° (N) 3,690 7.0 -19.0°
Reaches altitude 10° 19:18:11 10° 359° (N) 2,731 6.3 -19.4°
Maximum altitude 19:24:22 63° 80° (E) 1,072 3.9 -20.6°
Drops below altitude 10° 19:30:27 10° 162° (SSE) 2,683 6.2 -21.8°
Sets 19:32:57 0° 165° (SSE) 3,621 6.9 -22.3°
